Weather History for Jacksonville, FL

Change the Weather History Date:

Monday, December 10, 2012

  Actual Average Record
Temperature  
Mean Temperature 71 °F 56 °F  
Max Temperature 81 °F 68 °F 82 °F (1961)
Min Temperature 61 °F 45 °F 25 °F (1974)
Degree Days  
Heating Degree Days 0 9  
Month to date heating degree days 17 86  
Since 1 July heating degree days 265 259  
Cooling Degree Days 6 1  
Month to date cooling degree days 7 10  
Year to date cooling degree days 2750 2654  
Growing Degree Days 21 (Base 50)    
Moisture  
Dew Point 64 °F    
Average Humidity 76    
Maximum Humidity 100    
Minimum Humidity 51    
Precipitation  
Precipitation 0.05 in 0.08 in 2.86 in (1997)
Month to date precipitation 0.28 0.87  
Year to date precipitation 51.38 50.46  
Snow  
Snow 0.00 in 0.00 in T in (1957)
Month to date snowfall 0.0 0.0  
Since 1 July snowfall 0.0 0.0  
Snow Depth 0.00 in    
Sea Level Pressure  
Sea Level Pressure 29.91 in    
Wind  
Wind Speed 6 mph (SSW)    
Max Wind Speed 14 mph    
Max Gust Speed 34 mph    
Visibility 6 miles    
Events Fog , Rain , Thunderstorm    
T = Trace of Precipitation, MM = Missing Value Source: NWS Daily Summary

Daily Weather History Graph

Daily Weather History Graph

Search for Another Location

Airport:

Trip Planner

Search our weather history database for the weather conditions in past years. The results will help you decide how hot, cold, wet, or windy it might be!

Date:

Astronomy

Dec. 10, 2012 Rise Set
Actual Time 7:13 AM EST 5:26 PM EST
Civil Twilight 6:46 AM EST 5:52 PM EST
Nautical Twilight 6:16 AM EST 6:22 PM EST
Astronomical Twilight 5:47 AM EST 6:52 PM EST
Moon 4:02 AM EST (12/10) 3:08 PM EST (12/10)
Length of Visible Light 11h 05m
Length of Day
10h 13m
Waning Crescent, 10% of the Moon is Illuminated
Dec 10
Waning Crescent
Dec 13
New
Dec 20
First Quarter
Dec 28
Full
Jan 4
Last Quarter

Hourly Weather History & Observations

Time (EST) Temp. Heat Index Dew Point Humidity Pressure Visibility Wind Dir Wind Speed Gust Speed Precip Events Conditions
12:56 AM 64.0 °F - 64.0 °F 100% 30.00 in 0.1 mi Calm Calm - N/A Fog Fog
1:56 AM 63.0 °F - 63.0 °F 100% 29.99 in 0.1 mi Calm Calm - N/A Fog Fog
2:56 AM 63.0 °F - 63.0 °F 100% 29.98 in 0.1 mi Calm Calm - N/A Fog Fog
3:56 AM 64.0 °F - 63.0 °F 96% 29.97 in 0.1 mi SSW 3.5 mph - N/A Fog Fog
4:56 AM 64.0 °F - 63.0 °F 96% 29.96 in 0.1 mi WSW 3.5 mph - N/A Fog Fog
5:56 AM 63.0 °F - 63.0 °F 100% 29.97 in 0.1 mi SW 3.5 mph - N/A Fog Fog
6:45 AM 62.6 °F - 62.6 °F 100% 29.97 in 0.1 mi SSW 4.6 mph - N/A Fog Fog
6:56 AM 63.0 °F - 63.0 °F 100% 29.97 in 0.2 mi SSW 4.6 mph - N/A Fog Fog
7:38 AM 62.6 °F - 62.6 °F 100% 29.96 in 0.5 mi SW 5.8 mph - N/A Fog Fog
7:56 AM 61.0 °F - 61.0 °F 100% 29.96 in 0.8 mi SSW 3.5 mph - N/A   Mostly Cloudy
8:39 AM 62.6 °F - 62.6 °F 100% 29.97 in 2.0 mi SW 5.8 mph - N/A   Mostly Cloudy
8:46 AM 62.6 °F - 60.8 °F 94% 29.97 in 6.0 mi SW 4.6 mph - N/A   Mostly Cloudy
8:56 AM 62.1 °F - 62.1 °F 100% 29.97 in 8.0 mi West 4.6 mph - N/A   Mostly Cloudy
9:56 AM 66.9 °F - 61.0 °F 81% 29.98 in 10.0 mi SW 4.6 mph - N/A   Mostly Cloudy
10:56 AM 73.0 °F - 61.0 °F 66% 29.96 in 10.0 mi SSW 8.1 mph 34.5 mph N/A   Mostly Cloudy
11:56 AM 78.1 °F - 61.0 °F 56% 29.93 in 10.0 mi SSW 10.4 mph 19.6 mph N/A   Mostly Cloudy
12:56 PM 80.1 °F 81.1 °F 61.0 °F 52% 29.89 in 10.0 mi SW 6.9 mph - N/A   Mostly Cloudy
1:56 PM 81.0 °F 81.7 °F 61.0 °F 50% 29.86 in 10.0 mi SSW 11.5 mph - N/A   Mostly Cloudy
2:56 PM 77.0 °F - 64.0 °F 64% 29.84 in 10.0 mi South 8.1 mph - N/A   Overcast
3:43 PM 73.4 °F - 66.2 °F 78% 29.83 in 10.0 mi SSW 5.8 mph - 0.00 in Rain , Thunderstorm Light Thunderstorms and Rain
3:56 PM 72.0 °F - 66.9 °F 84% 29.84 in 9.0 mi South 10.4 mph - 0.00 in Rain , Thunderstorm Light Thunderstorms and Rain
4:20 PM 71.6 °F - 68.0 °F 88% 29.82 in 10.0 mi SSW 5.8 mph - 0.03 in Rain Light Rain
4:56 PM 70.0 °F - 68.0 °F 93% 29.83 in 10.0 mi SSW 9.2 mph - 0.03 in   Mostly Cloudy
5:56 PM 69.1 °F - 66.9 °F 93% 29.84 in 5.0 mi SSW 9.2 mph - 0.00 in Rain Light Rain
6:56 PM 69.1 °F - 66.9 °F 93% 29.85 in 10.0 mi SW 8.1 mph - 0.01 in   Overcast
7:07 PM 69.8 °F - 66.2 °F 88% 29.85 in 4.0 mi SSW 9.2 mph - 0.01 in Rain Light Rain
7:56 PM 69.1 °F - 66.9 °F 93% 29.83 in 10.0 mi WSW 5.8 mph - 0.01 in   Overcast
8:46 PM 69.8 °F - 68.0 °F 94% 29.86 in 10.0 mi SSW 6.9 mph - N/A   Overcast
8:56 PM 69.1 °F - 68.0 °F 96% 29.86 in 10.0 mi South 6.9 mph - N/A   Overcast
9:56 PM 68.0 °F - 66.9 °F 96% 29.87 in 10.0 mi SSW 5.8 mph - N/A   Mostly Cloudy
10:47 PM 66.2 °F - 66.2 °F 100% 29.87 in 10.0 mi South 3.5 mph - N/A   Mostly Cloudy
10:56 PM 66.0 °F - 66.0 °F 100% 29.87 in 8.0 mi South 3.5 mph - N/A   Mostly Cloudy
11:56 PM 66.0 °F - 64.9 °F 96% 29.86 in 10.0 mi WSW 6.9 mph - N/A   Mostly Cloudy